Total_Precipitation_Accumulation
0.02 0.02 0.01 0.00 0.01 0.02 0.02 0.03 0.04 0.10 0.20 0.25 0.23 0.24 0.26 0.28 0.29 0.31 0.31 0.28 0.27 0.29 0.31 0.25 0.27 0.23 0.15 0.12 0.10 0.07 0.05 0.04 0.05 0.04 0.04 0.01 0.01 0.01 0.00 0.00 0.00 0.00 0.00
0.03 0.03 0.03 0.02 0.02 0.04 0.05 0.06 0.08 0.14 0.25 0.36 0.42 0.47 0.61 0.71 0.74 0.72 0.56 0.47 0.47 0.46 0.44 0.43 0.38 0.28 0.18 0.11 0.07 0.04 0.03 0.02 0.03 0.05 0.05 0.01 0.00 0.00 0.00 0.00 0.00 0.00 0.00
0.03 0.02 0.02 0.01 0.02 0.08 0.14 0.14 0.12 0.14 0.21 0.23 0.28 0.46 0.71 0.92 1.03 1.05 0.94 0.85 0.81 0.77 0.72 0.64 0.50 0.31 0.17 0.12 0.07 0.03 0.02 0.02 0.02 0.04 0.09 0.06 0.02 0.02 0.00 0.00 0.00 0.01 0.01
0.00 0.00 0.00 0.01 0.02 0.02 0.02 0.02 0.02 0.05 0.11 0.12 0.15 0.23 0.48 0.79 1.04 1.18 1.19 1.15 1.09 0.99 0.88 0.73 0.50 0.28 0.14 0.07 0.03 0.01 0.02 0.03 0.02 0.04 0.07 0.11 0.09 0.08 0.03 0.01 0.02 0.04 0.03
0.00 0.00 0.00 0.00 0.00 0.00 0.00 0.00 0.00 0.02 0.04 0.05 0.07 0.07 0.17 0.27 0.33 0.41 0.50 0.60 0.68 0.70 0.63 0.53 0.39 0.21 0.10 0.05 0.04 0.03 0.03 0.03 0.02 0.02 0.02 0.02 0.04 0.04 0.07 0.04 0.07 0.10 0.08
0.00 0.00 0.00 0.00 0.00 0.00 0.00 0.00 0.00 0.01 0.01 0.02 0.02 0.03 0.09 0.19 0.24 0.25 0.25 0.26 0.29 0.31 0.29 0.25 0.19 0.11 0.06 0.05 0.04 0.04 0.03 0.02 0.03 0.04 0.05 0.04 0.04 0.05 0.09 0.11 0.15 0.16 0.12
0.00 0.00 0.00 0.00 0.00 0.00 0.00 0.00 0.00 0.00 0.01 0.02 0.03 0.05 0.10 0.14 0.13 0.12 0.10 0.09 0.09 0.10 0.11 0.09 0.08 0.05 0.04 0.04 0.06 0.05 0.03 0.03 0.03 0.04 0.06 0.09 0.11 0.14 0.18 0.20 0.21 0.16 0.10
0.00 0.00 0.00 0.00 0.00 0.00 0.00 0.00 0.00 0.01 0.03 0.06 0.11 0.20 0.32 0.36 0.31 0.21 0.12 0.08 0.08 0.07 0.06 0.06 0.06 0.04 0.03 0.03 0.05 0.04 0.03 0.03 0.03 0.03 0.06 0.09 0.10 0.11 0.17 0.20 0.18 0.13 0.11
0.00 0.00 0.00 0.00 0.00 0.00 0.00 0.01 0.01 0.04 0.10 0.16 0.18 0.20 0.20 0.22 0.20 0.13 0.09 0.07 0.06 0.05 0.04 0.05 0.05 0.04 0.03 0.04 0.03 0.03 0.03 0.04 0.04 0.06 0.08 0.09 0.07 0.05 0.05 0.08 0.09 0.08 0.07
0.00 0.00 0.00 0.00 0.00 0.01 0.02 0.05 0.05 0.11 0.24 0.34 0.37 0.25 0.15 0.10 0.10 0.10 0.07 0.04 0.03 0.03 0.04 0.04 0.03 0.02 0.01 0.01 0.01 0.01 0.03 0.04 0.05 0.08 0.12 0.13 0.11 0.07 0.04 0.04 0.06 0.06 0.04
0.00 0.00 0.00 0.00 0.01 0.02 0.06 0.16 0.22 0.29 0.38 0.51 0.58 0.46 0.27 0.16 0.12 0.10 0.05 0.02 0.03 0.04 0.04 0.02 0.01 0.00 0.00 0.00 0.00 0.00 0.00 0.02 0.03 0.04 0.05 0.05 0.05 0.05 0.02 0.02 0.03 0.04 0.05
0.00 0.00 0.00 0.00 0.00 0.02 0.12 0.35 0.60 0.85 0.90 0.96 1.00 0.84 0.46 0.22 0.11 0.05 0.02 0.02 0.05 0.06 0.04 0.02 0.00 0.00 0.00 0.00 0.00 0.00 0.01 0.01 0.01 0.01 0.01 0.01 0.02 0.02 0.00 0.00 0.00 0.02 0.05
0.00 0.00 0.00 0.00 0.00 0.01 0.07 0.21 0.28 0.52 0.72 0.88 0.98 0.76 0.37 0.15 0.06 0.02 0.03 0.06 0.08 0.06 0.04 0.02 0.01 0.00 0.01 0.01 0.02 0.01 0.00 0.00 0.00 0.00 0.01 0.01 0.01 0.01 0.00 0.00 0.00 0.00 0.03
0.00 0.00 0.00 0.00 0.00 0.00 0.02 0.11 0.13 0.12 0.21 0.44 0.61 0.47 0.24 0.13 0.06 0.03 0.03 0.03 0.02 0.01 0.01 0.00 0.00 0.00 0.01 0.01 0.01 0.00 0.00 0.00 0.00 0.00 0.00 0.00 0.00 0.00 0.00 0.00 0.00 0.00 0.02
0.00 0.00 0.00 0.00 0.00 0.00 0.01 0.06 0.09 0.08 0.12 0.28 0.39 0.30 0.17 0.11 0.04 0.01 0.00 0.00 0.00 0.00 0.00 0.00 0.00 0.00 0.01 0.00 0.00 0.00 0.00 0.00 0.00 0.00 0.00 0.00 0.00 0.00 0.00 0.00 0.00 0.01 0.01
0.00 0.00 0.00 0.00 0.00 0.01 0.01 0.01 0.03 0.05 0.09 0.19 0.27 0.25 0.18 0.11 0.04 0.01 0.00 0.01 0.00 0.00 0.00 0.00 0.00 0.00 0.00 0.00 0.00 0.00 0.00 0.00 0.00 0.00 0.00 0.00 0.00 0.00 0.00 0.00 0.00 0.00 0.01
0.00 0.00 0.00 0.00 0.00 0.01 0.02 0.03 0.03 0.05 0.10 0.15 0.18 0.21 0.18 0.13 0.09 0.03 0.01 0.01 0.00 0.00 0.00 0.00 0.00 0.00 0.00 0.00 0.00 0.00 0.00 0.00 0.00 0.00 0.00 0.00 0.00 0.00 0.00 0.00 0.00 0.00 0.00
0.00 0.00 0.00 0.00 0.00 0.00 0.02 0.02 0.04 0.06 0.10 0.10 0.13 0.16 0.17 0.20 0.20 0.09 0.04 0.02 0.01 0.00 0.01 0.01 0.01 0.00 0.00 0.00 0.00 0.00 0.00 0.00 0.00 0.00 0.00 0.00 0.00 0.00 0.00 0.00 0.00 0.00 0.00
0.00 0.00 0.00 0.00 0.00 0.00 0.00 0.00 0.01 0.04 0.07 0.06 0.08 0.10 0.11 0.15 0.17 0.12 0.06 0.04 0.04 0.02 0.01 0.01 0.01 0.00 0.00 0.00 0.00 0.00 0.00 0.00 0.00 0.00 0.00 0.00 0.00 0.00 0.00 0.00 0.00 0.00 0.00
0.00 0.00 0.00 0.00 0.00 0.00 0.00 0.00 0.00 0.02 0.06 0.06 0.06 0.08 0.09 0.15 0.18 0.13 0.06 0.04 0.06 0.04 0.01 0.00 0.00 0.00 0.00 0.00 0.00 0.00 0.00 0.00 0.00 0.00 0.00 0.00 0.00 0.00 0.00 0.00 0.00 0.00 0.00
0.00 0.00 0.00 0.00 0.00 0.00 0.00 0.00 0.00 0.01 0.03 0.04 0.03 0.04 0.07 0.11 0.13 0.11 0.08 0.04 0.03 0.02 0.01 0.00 0.00 0.00 0.00 0.00 0.00 0.00 0.00 0.00 0.00 0.00 0.00 0.00 0.00 0.00 0.00 0.00 0.00 0.00 0.00
0.00 0.00 0.00 0.00 0.00 0.00 0.00 0.00 0.00 0.00 0.01 0.02 0.02 0.02 0.03 0.03 0.05 0.09 0.09 0.05 0.01 0.01 0.01 0.01 0.00 0.00 0.00 0.00 0.00 0.00 0.00 0.00 0.00 0.00 0.00 0.00 0.00 0.00 0.00 0.00 0.00 0.00 0.00
0.00 0.00 0.00 0.00 0.00 0.00 0.00 0.00 0.01 0.01 0.01 0.03 0.04 0.03 0.03 0.03 0.04 0.07 0.07 0.04 0.02 0.00 0.00 0.00 0.00 0.00 0.00 0.00 0.00 0.00 0.00 0.00 0.00 0.00 0.00 0.00 0.00 0.00 0.00 0.00 0.00 0.00 0.00
0.00 0.00 0.00 0.00 0.00 0.00 0.00 0.01 0.01 0.01 0.02 0.03 0.04 0.03 0.02 0.02 0.02 0.03 0.06 0.06 0.03 0.01 0.01 0.02 0.01 0.00 0.00 0.00 0.00 0.00 0.00 0.00 0.00 0.00 0.00 0.00 0.00 0.00 0.00 0.00 0.00 0.00 0.00
0.00 0.00 0.00 0.00 0.00 0.00 0.00 0.00 0.01 0.01 0.01 0.02 0.02 0.01 0.01 0.01 0.01 0.01 0.03 0.07 0.08 0.05 0.04 0.03 0.01 0.00 0.00 0.00 0.00 0.00 0.00 0.00 0.00 0.00 0.00 0.00 0.00 0.00 0.00 0.00 0.00 0.00 0.00
0.00 0.00 0.00 0.00 0.00 0.00 0.00 0.00 0.00 0.01 0.01 0.01 0.01 0.01 0.01 0.01 0.00 0.00 0.00 0.01 0.03 0.01 0.02 0.02 0.01 0.00 0.00 0.00 0.00 0.00 0.00 0.00 0.00 0.00 0.00 0.00 0.00 0.00 0.00 0.00 0.00 0.00 0.00